Regional Weather Roundup
Issued by NWS

Home | Current Version | Previous Version | Graphics & Text | Print | Product List | Glossary On
Versions: 1 2 3 4 5 6 7 8 9 10 11 12 13 14 15 16 17 18 19 20 21 22 23 24 25 26 27 28 29 30 31 32 33 34 35 36 37 38 39 40 41 42 43 44 45 46 47 48 49 50
000
ASUS44 KMEG 311400
RWRTN
TENNESSEE HOURLY STATE WEATHER ROUNDUP
NATIONAL WEATHER SERVICE MEMPHIS TN
900 AM CDT FRI OCT 31 2014

TNZ002-004-019-021-049-052-054-088>092-311500-
WEST TENNESSEE

CITY           SKY/WX    TMP DP  RH WIND       PRES   REMARKS
MEMPHIS INTL   MOSUNNY   54  47  77 N12G18    30.09R
NWS MEMPHIS      N/A     51 N/A N/A MISG        N/A
JACKSON        SUNNY     49  47  93 N7        30.07R
DYERSBURG      PTSUNNY   52  39  62 N14G20    30.11R
UNION CITY     CLOUDY    50  46  87 N13       30.08R
PARIS          CLOUDY    50  46  87 N8        30.06R
LEXINGTON      PTSUNNY   48  46  93 CALM      30.03R
SAVANNAH       CLOUDY    48  48 100 N3        30.04R
$$

TNZ008-025-027-028-033-062-065-066-311500-
NORTH MIDDLE TENNESSEE

CITY           SKY/WX    TMP DP  RH WIND       PRES   REMARKS
NASHVILLE      CLOUDY    50  46  86 NW7       30.03S
CLARKSVILLE    CLOUDY    50  47  89 N6        30.05R
CROSSVILLE     CLOUDY    46  40  79 W3        29.99R
$$

TNZ061-075-076-078-094-096-097-311500-
SOUTH MIDDLE TENNESSEE

CITY           SKY/WX    TMP DP  RH WIND       PRES   REMARKS
SHELBYVILLE    CLOUDY    48  46  93 SW3       30.03R
$$

TNZ017-018-042-046-047-311500-
NORTHEAST TENNESSEE

CITY           SKY/WX    TMP DP  RH WIND       PRES   REMARKS
TRI CITIES     FOG       39  38  96 CALM      29.98S VSB 1
ELIZABETHTON   MOSUNNY   39  37  93 E3        29.97S
$$

TNZ012-013-036-069-073-074-311500-
CENTRAL EAST TENNESSEE

CITY           SKY/WX    TMP DP  RH WIND       PRES   REMARKS
KNOXVILLE      PTSUNNY   43  41  93 CALM      29.98S
OAK RIDGE      CLOUDY    46  42  86 CALM      30.00S
GATLINBURG     PTSUNNY   43  39  87 CALM      29.98S
$$

TNZ083-085-099-311500-
SOUTHEAST TENNESSEE

CITY           SKY/WX    TMP DP  RH WIND       PRES   REMARKS
CHATTANOOGA    CLOUDY    52  43  71 W6        30.00R
$$

SKY/WX REPORTED AS FAIR MEANS FEW OR NO CLOUDS BELOW
12 THOUSAND FEET.




USA.gov is the U.S. government's official web portal to all federal, state and local government web resources and services.